K6GMW Weather Reports


Display with metric or nautical units.
time (UTC)temp
F
wind
direction
speed
MPH
gust
MPH
rain 1hr
in
rain 24hr
in
rain mn
in
humidity
%
barometer
mb
20260506153531 59 330 4.0 7.0 0.00 0.04 0.04 87 1014.3
20260506153028 59 317 9.0 10.0 0.00 0.04 0.04 87 1014.4
20260506152525 59 344 5.0 7.0 0.00 0.04 0.04 86 1014.5
20260506152023 59 276 5.0 6.0 0.00 0.04 0.04 86 1014.4
20260506151520 60 304 6.0 9.0 0.00 0.04 0.04 85 1014.4
20260506151018 60 287 7.0 9.0 0.00 0.04 0.04 85 1014.5
20260506150514 60 293 3.0 6.0 0.00 0.04 0.04 85 1014.4
20260506150011 59 272 5.0 7.0 0.00 0.04 0.04 86 1014.2
20260506145507 59 315 8.0 11.0 0.00 0.04 0.04 85 1014.0
20260506145005 59 308 5.0 9.0 0.00 0.04 0.04 85 1013.8
20260506144501 59 308 3.0 6.0 0.00 0.04 0.04 85 1013.9
20260506143959 59 318 6.0 6.0 0.00 0.04 0.04 84 1014.0
20260506143456 59 321 7.0 9.0 0.00 0.04 0.04 83 1014.0
20260506142955 60 305 4.0 6.0 0.00 0.04 0.04 83 1013.9
20260506142452 60 311 4.0 9.0 0.00 0.04 0.04 83 1014.0
20260506141950 59 266 4.0 6.0 0.00 0.04 0.04 84 1013.8
20260506141448 59 331 5.0 8.0 0.00 0.04 0.04 83 1013.6
20260506140946 59 325 5.0 11.0 0.00 0.04 0.04 84 1013.7
20260506140443 59 320 8.0 9.0 0.00 0.04 0.04 84 1013.5
20260506135939 59 265 8.0 13.0 0.00 0.04 0.04 84 1013.6
20260506135437 59 330 8.0 9.0 0.00 0.04 0.04 84 1013.6
20260506134932 59 305 6.0 11.0 0.00 0.04 0.04 84 1013.4
20260506134429 59 351 4.0 12.0 0.00 0.04 0.04 84 1013.4
20260506133926 59 3 8.0 12.0 0.00 0.04 0.04 83 1013.4
20260506133423 59 328 4.0 9.0 0.00 0.04 0.04 84 1013.4
20260506132920 59 345 8.0 12.0 0.00 0.04 0.04 83 1013.6
20260506132417 60 0 6.0 12.0 0.00 0.04 0.04 84 1013.2
20260506131914 60 329 3.0 7.0 0.00 0.04 0.04 85 1013.0
20260506131410 60 330 6.0 14.0 0.00 0.04 0.04 85 1013.4
20260506130908 60 286 8.0 11.0 0.00 0.04 0.04 85 1013.2
20260506130404 60 342 7.0 11.0 0.00 0.04 0.04 85 1013.0
20260506125902 60 309 6.0 11.0 0.00 0.04 0.04 85 1012.9
20260506125400 60 1 6.0 10.0 0.00 0.04 0.04 85 1013.0
20260506124858 60 331 8.0 9.0 0.00 0.04 0.04 86 1012.9
20260506124355 60 343 5.0 10.0 0.00 0.04 0.04 86 1012.5
20260506123853 60 292 6.0 9.0 0.00 0.04 0.04 86 1012.5
20260506123351 61 298 10.0 11.0 0.00 0.04 0.04 86 1012.4
20260506122848 61 319 6.0 7.0 0.00 0.04 0.04 86 1012.5
20260506122344 61 276 6.0 9.0 0.00 0.04 0.04 85 1012.0
20260506121843 61 265 4.0 6.0 0.00 0.04 0.04 86 1012.2
20260506121340 61 333 3.0 7.0 0.00 0.04 0.04 86 1011.9
20260506120837 61 268 4.0 5.0 0.00 0.04 0.04 85 1012.0
20260506120334 61 290 3.0 5.0 0.00 0.04 0.04 85 1012.0
20260506115831 61 266 3.0 3.0 0.24 0.04 0.04 84 1011.8
20260506115330 61 293 2.0 4.0 0.24 0.04 0.04 84 1011.7
20260506114827 61 322 2.0 4.0 0.00 0.00 0.00 84 1011.6
20260506114325 61 317 2.0 7.0 0.00 0.00 0.00 84 1011.8
20260506113823 61 324 3.0 6.0 0.00 0.00 0.00 84 1011.5
20260506113320 62 277 4.0 5.0 0.00 0.00 0.00 84 1011.4
20260506112817 62 321 3.0 6.0 0.00 0.00 0.00 84 1011.1
20260506112314 62 307 3.0 6.0 0.00 0.00 0.00 84 1011.2
20260506111811 62 284 4.0 6.0 0.00 0.00 0.00 84 1011.1
20260506111309 62 329 3.0 6.0 0.00 0.00 0.00 84 1010.9
20260506110807 62 279 0.0 2.0 0.00 0.00 0.00 85 1011.0
20260506110304 62 358 1.0 4.0 0.00 0.00 0.00 84 1010.8
20260506105800 62 353 2.0 3.0 0.00 0.00 0.00 84 1010.7
20260506105257 62 333 3.0 3.0 0.00 0.00 0.00 84 1010.8
20260506104755 62 330 3.0 6.0 0.00 0.00 0.00 84 1010.6
20260506104252 62 332 3.0 6.0 0.00 0.00 0.00 84 1010.7
20260506103749 62 348 2.0 6.0 0.00 0.00 0.00 85 1010.7
20260506103247 62 334 2.0 4.0 0.00 0.00 0.00 86 1010.8
20260506102744 62 339 4.0 9.0 0.00 0.00 0.00 85 1010.7
20260506102242 62 312 4.0 9.0 0.00 0.00 0.00 84 1010.5
20260506101739 62 355 7.0 10.0 0.00 0.00 0.00 83 1010.6
20260506101235 63 322 6.0 6.0 0.00 0.00 0.00 84 1010.5
20260506100733 63 317 6.0 8.0 0.00 0.00 0.00 84 1010.3
20260506100231 63 3 3.0 4.0 0.00 0.00 0.00 85 1010.2
20260506095730 63 298 4.0 5.0 0.00 0.00 0.00 85 1010.2
20260506095226 64 298 5.0 7.0 0.00 0.00 0.00 84 1010.1
20260506094723 64 314 6.0 9.0 0.00 0.00 0.00 84 1010.1
20260506094221 64 304 6.0 11.0 0.00 0.00 0.00 83 1009.8
20260506093720 65 280 6.0 7.0 0.00 0.00 0.00 83 1010.2
20260506093216 65 254 4.0 4.0 0.00 0.00 0.00 84 1010.0
20260506092714 65 320 4.0 8.0 0.00 0.00 0.00 83 1010.0
20260506092211 65 311 9.0 10.0 0.00 0.00 0.00 82 1009.7
20260506091709 66 278 6.0 7.0 0.00 0.00 0.00 82 1009.7
20260506091206 66 280 9.0 11.0 0.00 0.00 0.00 81 1009.7
20260506090704 66 289 9.0 10.0 0.00 0.00 0.00 81 1009.5
20260506090200 67 296 6.0 13.0 0.00 0.00 0.00 80 1009.8
20260506085657 68 318 7.0 10.0 0.00 0.00 0.00 81 1009.7
20260506085153 68 308 8.0 9.0 0.00 0.00 0.00 81 1009.6
20260506084650 68 296 5.0 11.0 0.00 0.00 0.00 81 1009.4
20260506084147 69 294 12.0 12.0 0.00 0.00 0.00 81 1009.5
20260506083644 70 331 5.0 10.0 0.00 0.00 0.00 81 1009.5
20260506083142 71 16 4.0 8.0 0.00 0.00 0.00 82 1009.3
20260506082638 71 302 11.0 13.0 0.00 0.00 0.00 83 1009.2
20260506082134 73 303 6.0 11.0 0.00 0.00 0.00 83 1009.3
20260506081632 75 229 5.0 9.0 0.00 0.00 0.00 90 1009.2
20260506081129 75 213 8.0 10.0 0.00 0.00 0.00 90 1009.0
20260506080627 75 201 6.0 7.0 0.00 0.00 0.00 90 1008.9
20260506080123 75 192 5.0 7.0 0.00 0.00 0.00 90 1009.0
20260506073107 75 195 6.0 9.0 0.00 0.00 0.00 90 1008.8
20260506072604 75 188 6.0 6.0 0.00 0.00 0.00 90 1008.9
20260506072102 75 177 5.0 6.0 0.00 0.00 0.00 90 1008.8
20260506071559 75 170 6.0 7.0 0.00 0.00 0.00 90 1008.8
20260506071056 75 200 5.0 7.0 0.00 0.00 0.00 90 1009.0
20260506070553 75 194 4.0 6.0 0.00 0.00 0.00 90 1008.9
20260506062033 75 171 3.0 5.0 0.00 0.00 0.00 89 1009.1
20260506061529 75 160 3.0 8.0 0.00 0.00 0.00 89 1009.1
20260506061027 75 144 4.0 7.0 0.00 0.00 0.00 89 1009.1
20260506060525 75 167 6.0 6.0 0.00 0.00 0.00 89 1009.5
20260506050954 76 166 4.0 4.0 0.00 0.00 0.00 87 1008.9
20260506050452 76 176 2.0 4.0 0.00 0.00 0.00 87 1008.8
20260506044942 76 170 3.0 6.0 0.00 0.00 0.00 85 1009.0
20260506044440 76 170 3.0 4.0 0.00 0.00 0.00 85 1008.9
20260506043937 77 174 4.0 5.0 0.00 0.00 0.00 84 1008.8
20260506043434 77 189 2.0 4.0 0.00 0.00 0.00 84 1008.9
20260506042932 77 192 3.0 6.0 0.00 0.00 0.00 84 1009.0
20260506042431 77 192 4.0 4.0 0.00 0.00 0.00 84 1008.7
20260506041929 77 184 4.0 4.0 0.00 0.00 0.00 83 1008.7
20260506041426 77 188 3.0 4.0 0.00 0.00 0.00 82 1008.4
20260506040923 77 189 4.0 5.0 0.00 0.00 0.00 82 1008.4
20260506040421 77 176 3.0 5.0 0.00 0.00 0.00 82 1008.6
20260506035916 77 191 5.0 7.0 0.00 0.00 0.00 82 1008.3
20260506035415 77 199 4.0 9.0 0.00 0.00 0.00 82 1008.3
20260506034911 77 191 8.0 10.0 0.00 0.00 0.00 82 1008.1
20260506034408 77 155 4.0 5.0 0.00 0.00 0.00 83 1007.9
20260506033905 77 171 3.0 10.0 0.00 0.00 0.00 83 1007.6
20260506033402 77 163 4.0 5.0 0.00 0.00 0.00 83 1007.8
20260506032859 77 176 3.0 4.0 0.00 0.00 0.00 82 1007.6
20260506032356 77 137 5.0 6.0 0.00 0.00 0.00 83 1007.5
20260506031853 77 153 4.0 6.0 0.00 0.00 0.00 83 1007.6
20260506031350 77 170 2.0 4.0 0.00 0.00 0.00 83 1007.6
20260506030848 77 165 4.0 5.0 0.00 0.00 0.00 82 1007.6
20260506030346 77 173 3.0 4.0 0.00 0.00 0.00 82 1007.5
20260506025842 77 157 4.0 8.0 0.00 0.00 0.00 82 1007.5
20260506025338 77 170 4.0 6.0 0.00 0.00 0.00 82 1007.6
20260506024835 77 137 4.0 4.0 0.00 0.00 0.00 82 1007.4
20260506024332 78 188 2.0 6.0 0.00 0.00 0.00 81 1007.6
20260506023829 78 184 3.0 6.0 0.00 0.00 0.00 81 1007.4
20260506023325 78 181 3.0 6.0 0.00 0.00 0.00 81 1007.0
20260506022822 77 160 3.0 7.0 0.00 0.00 0.00 81 1006.9
20260506022320 77 132 4.0 6.0 0.00 0.00 0.00 81 1006.8
20260506021818 77 149 4.0 6.0 0.00 0.00 0.00 81 1007.1
20260506021314 78 168 2.0 3.0 0.00 0.00 0.00 81 1007.2
20260506020811 78 170 3.0 4.0 0.00 0.00 0.00 79 1007.6
20260506020309 79 176 4.0 5.0 0.00 0.00 0.00 78 1007.5
20260506015807 79 204 3.0 3.0 0.00 0.00 0.00 78 1007.6
20260506015306 79 200 3.0 5.0 0.00 0.00 0.00 78 1007.4
20260506014800 79 209 4.0 5.0 0.00 0.00 0.00 78 1007.3
20260506014257 78 205 6.0 6.0 0.00 0.00 0.00 79 1007.3
20260506013754 78 190 2.0 4.0 0.00 0.00 0.00 79 1007.0
20260506013251 79 174 3.0 4.0 0.00 0.00 0.00 78 1007.1
20260506012748 79 185 5.0 6.0 0.00 0.00 0.00 77 1007.1
20260506012245 79 202 4.0 4.0 0.00 0.00 0.00 77 1007.1
20260506011742 80 179 2.0 6.0 0.00 0.00 0.00 76 1007.1
20260506011238 80 184 3.0 4.0 0.00 0.00 0.00 76 1007.0
20260506010737 80 169 4.0 5.0 0.00 0.00 0.00 75 1007.1
20260506010233 80 225 1.0 3.0 0.00 0.00 0.00 74 1007.0
20260506005731 80 206 4.0 4.0 0.00 0.00 0.00 74 1007.0
20260506005227 81 197 3.0 4.0 0.00 0.00 0.00 74 1006.8
20260506004723 81 181 2.0 4.0 0.00 0.00 0.00 74 1006.6
20260506004221 81 194 4.0 5.0 0.00 0.00 0.00 73 1006.4
20260506003717 81 187 3.0 6.0 0.00 0.00 0.00 72 1006.4
20260506003214 81 189 3.0 5.0 0.00 0.00 0.00 72 1006.2
20260506002709 82 229 3.0 4.0 0.00 0.00 0.00 71 1006.6
20260506002206 82 172 4.0 7.0 0.00 0.00 0.00 71 1006.1
20260506001701 82 177 2.0 7.0 0.00 0.00 0.00 70 1006.4
20260506001159 82 210 6.0 9.0 0.00 0.00 0.00 70 1006.3
20260506000656 82 187 4.0 7.0 0.00 0.00 0.00 70 1006.3
20260506000154 82 203 6.0 11.0 0.00 0.00 0.00 70 1006.3
20260505235651 83 198 7.0 10.0 0.00 0.00 0.00 69 1006.4
20260505235149 83 169 6.0 11.0 0.00 0.00 0.00 69 1006.2
20260505234645 83 174 6.0 11.0 0.00 0.00 0.00 69 1006.2
20260505234142 83 186 4.0 7.0 0.00 0.00 0.00 69 1006.1
20260505233639 84 186 5.0 7.0 0.00 0.00 0.00 68 1006.2
20260505233137 84 163 4.0 5.0 0.00 0.00 0.00 69 1006.4
20260505232634 84 184 3.0 7.0 0.00 0.00 0.00 67 1006.4
20260505232132 84 241 8.0 10.0 0.00 0.00 0.00 67 1006.3
20260505231628 84 231 8.0 10.0 0.00 0.00 0.00 66 1006.1
20260505231127 84 197 4.0 10.0 0.00 0.00 0.00 66 1006.1
20260505230625 85 215 5.0 12.0 0.00 0.00 0.00 65 1006.0
20260505230120 86 225 4.0 9.0 0.00 0.00 0.00 65 1006.1
20260505225617 86 199 4.0 9.0 0.00 0.00 0.00 65 1005.9
20260505225114 86 210 5.0 7.0 0.00 0.00 0.00 64 1006.1
20260505224610 86 194 4.0 7.0 0.00 0.00 0.00 65 1006.1
20260505224108 85 213 6.0 10.0 0.00 0.00 0.00 65 1005.9
20260505223605 85 173 6.0 8.0 0.00 0.00 0.00 65 1006.1
20260505223101 84 229 7.0 9.0 0.00 0.00 0.00 66 1006.1
20260505222557 83 243 8.0 12.0 0.00 0.00 0.00 67 1005.9
20260505222054 83 200 6.0 15.0 0.00 0.00 0.00 66 1005.8
20260505221551 84 190 5.0 11.0 0.00 0.00 0.00 66 1005.8
20260505221047 83 217 6.0 10.0 0.00 0.00 0.00 67 1005.9
20260505220545 83 179 10.0 16.0 0.00 0.00 0.00 66 1006.1
20260505220042 84 178 6.0 13.0 0.00 0.00 0.00 66 1005.9
20260505215540 85 171 8.0 13.0 0.00 0.00 0.00 66 1006.1
20260505215038 85 192 11.0 15.0 0.00 0.00 0.00 65 1006.1
20260505214536 85 185 11.0 15.0 0.00 0.00 0.00 65 1006.1
20260505214032 85 196 7.0 11.0 0.00 0.00 0.00 65 1006.3
20260505213530 84 185 3.0 13.0 0.00 0.00 0.00 67 1006.2
20260505213026 83 153 6.0 14.0 0.00 0.00 0.00 69 1006.3
20260505212523 83 198 5.0 10.0 0.00 0.00 0.00 69 1006.3
20260505212020 83 219 3.0 13.0 0.00 0.00 0.00 68 1006.5
20260505211517 84 190 8.0 12.0 0.00 0.00 0.00 66 1006.4
20260505211014 83 182 6.0 10.0 0.00 0.00 0.00 68 1006.4
20260505210510 83 211 11.0 15.0 0.00 0.00 0.00 67 1006.5
20260505210007 83 176 8.0 12.0 0.00 0.00 0.00 67 1006.6
20260505205506 83 164 7.0 15.0 0.00 0.00 0.00 67 1006.5
20260505205002 83 178 8.0 12.0 0.00 0.00 0.00 68 1006.7
20260505204500 82 214 6.0 19.0 0.00 0.00 0.00 68 1006.7
20260505203957 82 179 7.0 18.0 0.00 0.00 0.00 69 1006.6
20260505203453 82 193 7.0 15.0 0.00 0.00 0.00 68 1006.8
20260505202950 82 198 7.0 14.0 0.00 0.00 0.00 68 1006.9
20260505202447 82 168 3.0 14.0 0.00 0.00 0.00 68 1006.7
20260505201942 82 170 13.0 19.0 0.00 0.00 0.00 68 1006.7
20260505201440 82 223 5.0 13.0 0.00 0.00 0.00 68 1006.9
20260505200938 82 175 8.0 24.0 0.00 0.00 0.00 69 1006.8
20260505200435 82 176 11.0 17.0 0.00 0.00 0.00 68 1006.9
20260505195930 83 193 6.0 12.0 0.00 0.00 0.00 67 1007.0
20260505195428 82 180 9.0 15.0 0.00 0.00 0.00 69 1007.2
20260505194925 82 212 12.0 15.0 0.00 0.00 0.00 68 1007.1
20260505194423 82 170 8.0 13.0 0.00 0.00 0.00 69 1007.1
20260505193922 82 184 7.0 14.0 0.00 0.00 0.00 69 1007.1
20260505193420 82 175 5.0 13.0 0.00 0.00 0.00 69 1007.1
20260505192918 82 184 9.0 13.0 0.00 0.00 0.00 67 1007.1
20260505192416 82 208 8.0 8.0 0.00 0.00 0.00 69 1007.2
20260505191913 82 219 6.0 15.0 0.00 0.00 0.00 69 1007.1
20260505191412 82 202 9.0 11.0 0.00 0.00 0.00 69 1007.1
20260505190908 82 165 9.0 13.0 0.00 0.00 0.00 69 1007.1
20260505190404 81 205 6.0 15.0 0.00 0.00 0.00 70 1007.3
20260505185859 82 184 9.0 16.0 0.00 0.00 0.00 68 1007.2
20260505185356 82 179 3.0 15.0 0.00 0.00 0.00 68 1007.4
20260505184852 82 184 7.0 13.0 0.00 0.00 0.00 69 1007.2
20260505184349 82 192 9.0 16.0 0.00 0.00 0.00 67 1007.3
20260505183846 82 176 11.0 14.0 0.00 0.00 0.00 67 1007.4
20260505183343 81 175 4.0 11.0 0.00 0.00 0.00 72 1007.4
20260505182840 81 196 9.0 14.0 0.00 0.00 0.00 69 1007.6
20260505182336 81 160 4.0 9.0 0.00 0.00 0.00 71 1007.6
20260505181833 82 187 7.0 16.0 0.00 0.00 0.00 69 1007.7
20260505181331 81 188 7.0 14.0 0.00 0.00 0.00 70 1007.5
20260505180827 82 202 7.0 17.0 0.00 0.00 0.00 69 1007.6
20260505180324 81 193 7.0 16.0 0.00 0.00 0.00 71 1007.7
20260505175820 80 221 14.0 17.0 0.00 0.00 0.00 70 1007.6
20260505175317 80 195 6.0 19.0 0.00 0.00 0.00 71 1007.7
20260505174813 80 161 6.0 14.0 0.00 0.00 0.00 72 1007.8
20260505174311 80 178 8.0 15.0 0.00 0.00 0.00 72 1007.7
20260505173806 80 179 16.0 20.0 0.00 0.00 0.00 72 1007.6
20260505173303 79 196 7.0 12.0 0.00 0.00 0.00 75 1007.7
20260505172800 79 226 10.0 15.0 0.00 0.00 0.00 73 1007.7
20260505172257 79 185 13.0 16.0 0.00 0.00 0.00 74 1007.8
20260505171752 79 179 4.0 17.0 0.00 0.00 0.00 74 1007.7
20260505171249 78 215 10.0 17.0 0.00 0.00 0.00 74 1007.6
20260505170746 78 178 11.0 15.0 0.00 0.00 0.00 75 1007.7
20260505170243 78 234 10.0 15.0 0.00 0.00 0.00 76 1007.9
20260505165738 77 201 7.0 15.0 0.00 0.00 0.00 76 1007.9
20260505165234 77 200 6.0 16.0 0.00 0.00 0.00 75 1007.8
20260505164730 77 207 6.0 12.0 0.00 0.00 0.00 77 1007.9
20260505164227 76 172 5.0 10.0 0.00 0.00 0.00 78 1007.9
20260505163725 76 197 6.0 11.0 0.00 0.00 0.00 78 1008.2
20260505163223 75 197 5.0 10.0 0.00 0.00 0.00 78 1008.2
20260505162720 75 164 10.0 10.0 0.00 0.00 0.00 79 1008.2
20260505162217 75 177 5.0 15.0 0.00 0.00 0.00 78 1008.2
20260505161714 75 204 9.0 13.0 0.00 0.00 0.00 79 1008.1
20260505161212 75 174 5.0 11.0 0.00 0.00 0.00 79 1008.4
20260505160709 75 208 4.0 8.0 0.00 0.00 0.00 79 1008.2
20260505160207 74 196 3.0 12.0 0.00 0.00 0.00 79 1008.4